Weather History for KPSM - February, 2011

Change the Weather History Date:

Tuesday, February 15, 2011

  Actual Average Record
Temperature  
Mean Temperature 20 °F -  
Max Temperature 26 °F 34 °F 53 °F (2006)
Min Temperature 13 °F 18 °F -8 °F (1987)
Degree Days  
Heating Degree Days 45    
Moisture  
Dew Point -1 °F    
Average Humidity 42    
Maximum Humidity 56    
Minimum Humidity 34    
Precipitation  
Precipitation 0.00 in - - ()
Snow  
Snow 0.00 in - - ()
Snow Depth 16.00 in    
Sea Level Pressure  
Sea Level Pressure 30.08 in    
Wind  
Wind Speed 19 mph (WNW)    
Max Wind Speed 24 mph    
Max Gust Speed 37 mph    
Visibility 10 miles    
Events      
Averages and records for this station are not official NWS values.
T = Trace of Precipitation, MM = Missing Value Source: NWS Daily Summary

Daily Weather History Graph

Daily Weather History Graph

Search for Another Location

Airport or City:

Trip Planner

Search our weather history database for the weather conditions in past years. The results will help you decide how hot, cold, wet, or windy it might be!

Date:

Astronomy

Feb. 15, 2011 Rise Set
Actual Time 6:41 AM EST 5:14 PM EST
Civil Twilight 6:12 AM EST 5:43 PM EST
Nautical Twilight 5:38 AM EST 6:16 PM EST
Astronomical Twilight 5:06 AM EST 6:49 PM EST
Moon 2:16 PM EST (2/15) 4:36 AM EST (2/15)
Length of Visible Light 11h 31m
Length of Day
10h 32m
Waxing Gibbous, 90% of the Moon is Illuminated
Feb 15
Waxing Gibbous
Feb 18
Full
Feb 24
Last Quarter
Mar 4
New
Mar 12
First Quarter

Hourly Weather History & Observations

Time (EST) Temp. Windchill Dew Point Humidity Pressure Visibility Wind Dir Wind Speed Gust Speed Precip Events Conditions
12:55 AM 26.8 °F 11.9 °F 12.9 °F 56% 29.65 in 10.0 mi WNW 24.2 mph 36.8 mph N/A   Partly Cloudy
1:55 AM 24.1 °F 11.0 °F 9.9 °F 55% 29.71 in 10.0 mi WNW 16.1 mph 31.1 mph N/A   Scattered Clouds
2:55 AM 22.6 °F 6.4 °F 7.3 °F 52% 29.75 in 10.0 mi NW 24.2 mph 32.2 mph N/A   Clear
3:55 AM 22.1 °F 6.0 °F 7.5 °F 54% 29.79 in 10.0 mi WNW 23.0 mph 32.2 mph N/A   Clear
4:55 AM 21.6 °F 7.3 °F 6.3 °F 52% 29.86 in 10.0 mi WNW 17.3 mph 26.5 mph N/A   Clear
5:55 AM 20.1 °F 5.0 °F 3.9 °F 50% 29.90 in 10.0 mi WNW 18.4 mph 28.8 mph N/A   Clear
6:55 AM 18.5 °F 2.4 °F 2.3 °F 49% 29.95 in 10.0 mi WNW 19.6 mph 33.4 mph N/A   Clear
7:55 AM 17.8 °F 1.5 °F -0.0 °F 46% 30.01 in 10.0 mi WNW 19.6 mph 33.4 mph N/A   Clear
8:55 AM 17.6 °F 0.9 °F -1.3 °F 44% 30.05 in 10.0 mi WNW 20.7 mph 29.9 mph N/A   Clear
9:55 AM 18.0 °F 2.6 °F -2.7 °F 40% 30.09 in 10.0 mi NW 17.3 mph 24.2 mph N/A   Clear
10:55 AM 18.1 °F 2.0 °F -2.4 °F 40% 30.11 in 10.0 mi WNW 19.6 mph 32.2 mph N/A   Clear
11:55 AM 18.9 °F 2.1 °F -4.4 °F 36% 30.13 in 10.0 mi WNW 21.9 mph 33.4 mph N/A   Clear
12:55 PM 20.1 °F 4.2 °F -3.8 °F 35% 30.13 in 10.0 mi NW 20.7 mph 33.4 mph N/A   Clear
1:55 PM 20.8 °F 4.7 °F -3.8 °F 34% 30.15 in 10.0 mi NW 21.9 mph 29.9 mph N/A   Clear
2:55 PM 21.4 °F 8.5 °F -2.7 °F 35% 30.17 in 10.0 mi WNW 13.8 mph 25.3 mph N/A   Clear
3:55 PM 21.2 °F 7.3 °F -2.9 °F 35% 30.18 in 10.0 mi NW 16.1 mph - N/A   Clear
4:55 PM 20.7 °F 8.8 °F -3.5 °F 35% 30.21 in 10.0 mi West 11.5 mph 19.6 mph N/A   Clear
5:55 PM 19.4 °F 5.5 °F -4.7 °F 34% 30.25 in 10.0 mi WNW 15.0 mph 27.6 mph N/A   Clear
6:55 PM 18.1 °F 3.4 °F -5.8 °F 35% 30.27 in 10.0 mi West 16.1 mph 23.0 mph N/A   Clear
7:55 PM 17.4 °F 5.4 °F -5.4 °F 36% 30.28 in 10.0 mi West 10.4 mph - N/A   Clear
8:55 PM 16.3 °F 2.7 °F -6.3 °F 36% 30.31 in 10.0 mi West 12.7 mph 16.1 mph N/A   Clear
9:55 PM 15.8 °F 4.2 °F -7.4 °F 35% 30.32 in 10.0 mi West 9.2 mph - N/A   Clear
10:55 PM 14.2 °F 4.1 °F -8.5 °F 36% 30.33 in 10.0 mi WNW 6.9 mph - N/A   Clear
11:55 PM 13.3 °F 2.0 °F -8.7 °F 37% 30.34 in 10.0 mi WNW 8.1 mph - N/A   Mostly Cloudy